Precipitable_Water
1.09 0.94 0.87 0.80 0.78 0.74 0.72 0.69 0.64 0.64 0.69 0.72 0.70 0.73 0.73 0.69 0.67 0.68 0.74 0.76 0.71 0.67 0.61 0.58 0.58 0.66 0.63 0.43 0.37 0.51 0.55 0.56 0.51 0.42 0.37 0.33 0.30 0.30 0.31 0.36 0.36 0.33 0.31 0.29 0.40 0.42 0.43
1.15 1.04 0.93 0.83 0.78 0.70 0.72 0.70 0.66 0.67 0.71 0.72 0.71 0.74 0.72 0.67 0.66 0.71 0.75 0.76 0.71 0.65 0.58 0.56 0.59 0.71 0.55 0.33 0.52 0.58 0.60 0.57 0.48 0.43 0.41 0.42 0.37 0.40 0.38 0.34 0.31 0.31 0.27 0.29 0.32 0.41 0.36
1.17 1.10 0.98 0.87 0.78 0.71 0.71 0.71 0.67 0.68 0.71 0.72 0.73 0.75 0.71 0.67 0.69 0.73 0.75 0.75 0.71 0.63 0.59 0.57 0.65 0.70 0.51 0.40 0.54 0.58 0.56 0.51 0.52 0.48 0.45 0.51 0.46 0.40 0.40 0.31 0.31 0.28 0.24 0.25 0.27 0.25 0.21
1.11 1.10 1.03 0.90 0.79 0.72 0.71 0.72 0.67 0.69 0.73 0.72 0.75 0.76 0.70 0.69 0.71 0.74 0.73 0.71 0.66 0.60 0.56 0.60 0.73 0.69 0.42 0.53 0.56 0.53 0.53 0.47 0.50 0.52 0.48 0.48 0.50 0.44 0.40 0.36 0.32 0.27 0.24 0.19 0.21 0.23 0.23
1.00 1.12 1.05 0.93 0.79 0.72 0.70 0.70 0.66 0.70 0.72 0.73 0.76 0.75 0.69 0.70 0.72 0.72 0.70 0.65 0.59 0.56 0.59 0.71 0.69 0.63 0.39 0.52 0.44 0.50 0.46 0.40 0.43 0.47 0.47 0.48 0.45 0.39 0.36 0.27 0.25 0.25 0.15 0.16 0.18 0.24 0.20
0.96 1.03 1.04 0.98 0.82 0.73 0.68 0.67 0.65 0.70 0.72 0.74 0.76 0.71 0.69 0.72 0.71 0.69 0.63 0.59 0.59 0.62 0.66 0.76 0.77 0.49 0.43 0.39 0.45 0.42 0.43 0.43 0.41 0.40 0.40 0.39 0.33 0.29 0.29 0.25 0.21 0.20 0.21 0.21 0.17 0.23 0.28
0.91 0.95 1.05 1.01 0.89 0.73 0.67 0.66 0.66 0.72 0.73 0.75 0.75 0.70 0.71 0.72 0.69 0.63 0.56 0.55 0.46 0.43 0.55 0.42 0.43 0.41 0.43 0.50 0.42 0.37 0.40 0.40 0.40 0.33 0.28 0.37 0.25 0.25 0.25 0.25 0.24 0.22 0.19 0.24 0.26 0.33 0.32
0.78 0.93 1.04 1.00 0.95 0.74 0.66 0.66 0.67 0.73 0.74 0.75 0.73 0.71 0.70 0.70 0.64 0.61 0.63 0.57 0.54 0.58 0.35 0.50 0.49 0.44 0.46 0.47 0.30 0.33 0.42 0.34 0.34 0.25 0.32 0.28 0.23 0.30 0.32 0.30 0.27 0.25 0.23 0.26 0.30 0.33 0.30
0.70 0.85 0.96 1.01 0.95 0.76 0.67 0.66 0.68 0.73 0.75 0.76 0.71 0.69 0.69 0.65 0.65 0.66 0.69 0.68 0.82 0.76 0.37 0.37 0.46 0.42 0.39 0.43 0.29 0.29 0.37 0.36 0.33 0.27 0.28 0.26 0.30 0.35 0.33 0.32 0.29 0.26 0.26 0.28 0.29 0.33 0.35
0.60 0.78 0.90 1.04 0.96 0.79 0.67 0.66 0.70 0.74 0.76 0.75 0.69 0.67 0.67 0.67 0.64 0.72 0.63 0.76 0.86 0.80 0.27 0.29 0.34 0.39 0.42 0.36 0.25 0.36 0.38 0.36 0.35 0.29 0.29 0.27 0.31 0.33 0.33 0.31 0.31 0.22 0.33 0.31 0.33 0.31 0.24
0.55 0.69 0.90 1.04 0.97 0.82 0.66 0.66 0.71 0.75 0.77 0.73 0.67 0.65 0.71 0.73 0.77 0.64 0.78 0.96 0.84 0.57 0.15 0.28 0.33 0.46 0.44 0.31 0.32 0.34 0.41 0.36 0.31 0.31 0.31 0.27 0.28 0.27 0.29 0.30 0.32 0.28 0.38 0.35 0.32 0.28 0.28
0.55 0.64 0.81 1.01 1.01 0.82 0.66 0.67 0.72 0.76 0.77 0.72 0.67 0.66 0.77 0.80 0.83 0.81 0.88 0.82 0.55 0.24 0.15 0.23 0.30 0.31 0.33 0.31 0.31 0.40 0.37 0.38 0.40 0.33 0.33 0.30 0.34 0.33 0.30 0.34 0.35 0.35 0.30 0.33 0.33 0.29 0.20
0.53 0.62 0.77 1.00 1.04 0.81 0.67 0.68 0.74 0.77 0.77 0.70 0.68 0.70 0.77 0.87 0.68 0.97 0.86 0.48 0.21 0.18 0.27 0.21 0.23 0.30 0.31 0.26 0.28 0.34 0.31 0.29 0.25 0.23 0.23 0.27 0.28 0.34 0.35 0.29 0.34 0.31 0.25 0.18 0.18 0.17 0.16
0.56 0.60 0.72 1.01 1.04 0.80 0.69 0.70 0.76 0.78 0.77 0.72 0.70 0.76 0.83 0.85 0.93 0.88 0.53 0.30 0.18 0.26 0.21 0.28 0.26 0.30 0.27 0.29 0.29 0.32 0.30 0.27 0.32 0.27 0.24 0.21 0.18 0.26 0.33 0.29 0.24 0.25 0.26 0.19 0.12 0.14 0.16
0.58 0.60 0.74 0.99 1.05 0.77 0.71 0.72 0.77 0.80 0.77 0.73 0.74 0.76 0.80 0.83 0.86 0.77 0.40 0.23 0.23 0.30 0.26 0.23 0.24 0.23 0.24 0.26 0.24 0.28 0.29 0.27 0.29 0.31 0.22 0.21 0.20 0.30 0.31 0.34 0.30 0.23 0.21 0.29 0.23 0.25 0.20
0.57 0.62 0.77 0.95 1.05 0.76 0.73 0.76 0.78 0.81 0.76 0.75 0.63 0.69 0.67 0.96 0.92 0.54 0.34 0.26 0.32 0.39 0.34 0.25 0.16 0.20 0.19 0.22 0.20 0.20 0.22 0.30 0.27 0.32 0.34 0.27 0.19 0.29 0.31 0.36 0.37 0.30 0.30 0.23 0.25 0.16 0.14
0.58 0.64 0.91 1.08 0.93 0.77 0.73 0.78 0.80 0.80 0.78 0.80 0.66 0.57 0.70 0.93 0.66 0.41 0.28 0.27 0.36 0.44 0.37 0.23 0.19 0.19 0.23 0.23 0.26 0.21 0.22 0.29 0.33 0.33 0.37 0.32 0.29 0.29 0.29 0.28 0.26 0.26 0.21 0.20 0.20 0.19 0.11
0.58 0.72 0.96 1.13 0.85 0.75 0.76 0.79 0.83 0.81 0.81 0.78 0.64 0.46 0.76 0.68 0.35 0.35 0.30 0.34 0.44 0.39 0.38 0.32 0.29 0.30 0.28 0.30 0.28 0.27 0.26 0.31 0.41 0.37 0.28 0.36 0.33 0.26 0.24 0.30 0.32 0.29 0.21 0.18 0.11 0.10 0.14
0.61 0.83 0.94 1.03 0.85 0.77 0.77 0.80 0.83 0.81 0.82 0.69 0.55 0.58 0.77 0.51 0.24 0.25 0.33 0.35 0.39 0.37 0.35 0.34 0.31 0.32 0.38 0.36 0.33 0.36 0.34 0.43 0.42 0.35 0.30 0.37 0.33 0.24 0.23 0.25 0.28 0.22 0.22 0.20 0.18 0.17 0.12
0.72 0.81 0.90 0.92 0.85 0.78 0.78 0.80 0.82 0.82 0.83 0.72 0.61 0.41 0.54 0.45 0.35 0.26 0.28 0.31 0.33 0.45 0.39 0.40 0.37 0.39 0.37 0.38 0.45 0.39 0.37 0.45 0.45 0.43 0.39 0.39 0.33 0.26 0.18 0.18 0.20 0.18 0.19 0.21 0.18 0.12 0.11
0.77 0.87 0.88 0.91 0.84 0.79 0.79 0.79 0.80 0.83 0.84 0.76 0.57 0.41 0.46 0.32 0.29 0.26 0.29 0.30 0.34 0.35 0.41 0.40 0.35 0.36 0.31 0.36 0.39 0.39 0.44 0.44 0.47 0.49 0.42 0.33 0.24 0.27 0.26 0.24 0.22 0.18 0.19 0.19 0.15 0.15 0.12
0.86 0.90 0.92 0.89 0.82 0.79 0.80 0.78 0.79 0.84 0.87 0.73 0.46 0.40 0.43 0.36 0.34 0.27 0.27 0.30 0.32 0.39 0.38 0.32 0.31 0.36 0.37 0.37 0.42 0.40 0.43 0.40 0.34 0.43 0.37 0.35 0.23 0.26 0.23 0.25 0.22 0.16 0.17 0.18 0.18 0.18 0.17
0.86 0.91 0.92 0.85 0.80 0.80 0.80 0.77 0.79 0.83 0.83 0.69 0.66 0.54 0.37 0.35 0.32 0.26 0.25 0.26 0.38 0.43 0.44 0.40 0.33 0.36 0.34 0.37 0.46 0.49 0.47 0.43 0.40 0.34 0.30 0.28 0.23 0.20 0.14 0.21 0.19 0.14 0.14 0.15 0.16 0.19 0.19
0.90 0.93 0.86 0.82 0.80 0.78 0.77 0.79 0.80 0.81 0.79 0.72 0.65 0.50 0.38 0.27 0.31 0.26 0.27 0.29 0.35 0.42 0.39 0.42 0.39 0.34 0.43 0.54 0.50 0.49 0.47 0.43 0.41 0.36 0.32 0.22 0.19 0.18 0.14 0.16 0.09 0.13 0.21 0.21 0.18 0.19 0.22
0.95 0.85 0.82 0.79 0.77 0.77 0.77 0.80 0.81 0.78 0.79 0.75 0.70 0.48 0.38 0.33 0.31 0.29 0.29 0.30 0.41 0.52 0.43 0.43 0.45 0.50 0.56 0.47 0.36 0.33 0.34 0.36 0.38 0.40 0.36 0.32 0.22 0.15 0.11 0.12 0.14 0.15 0.17 0.19 0.18 0.17 0.23
0.84 0.80 0.78 0.77 0.76 0.75 0.80 0.82 0.79 0.77 0.79 0.79 0.73 0.67 0.50 0.35 0.32 0.33 0.31 0.33 0.33 0.42 0.41 0.44 0.55 0.57 0.51 0.38 0.32 0.23 0.21 0.26 0.24 0.30 0.42 0.36 0.31 0.21 0.17 0.12 0.09 0.14 0.21 0.31 0.28 0.15 0.24
0.79 0.78 0.78 0.78 0.79 0.81 0.82 0.82 0.79 0.76 0.78 0.78 0.78 0.72 0.63 0.50 0.48 0.40 0.28 0.31 0.45 0.43 0.38 0.45 0.48 0.47 0.48 0.33 0.27 0.24 0.23 0.30 0.21 0.21 0.23 0.26 0.25 0.19 0.17 0.15 0.16 0.21 0.28 0.32 0.15 0.16 0.29
0.80 0.81 0.81 0.83 0.84 0.85 0.84 0.82 0.77 0.75 0.75 0.76 0.69 0.86 0.70 0.61 0.56 0.53 0.42 0.39 0.49 0.49 0.39 0.47 0.47 0.48 0.41 0.31 0.29 0.28 0.27 0.29 0.27 0.28 0.26 0.22 0.19 0.18 0.19 0.16 0.14 0.28 0.31 0.23 0.29 0.36 0.36
0.80 0.81 0.84 0.88 0.88 0.88 0.86 0.80 0.75 0.72 0.73 0.76 0.68 0.94 0.94 0.72 0.59 0.64 0.61 0.70 0.68 0.57 0.48 0.55 0.49 0.48 0.47 0.38 0.35 0.35 0.31 0.33 0.29 0.21 0.33 0.22 0.26 0.22 0.23 0.20 0.29 0.34 0.34 0.38 0.40 0.38 0.40
Wind_Speed
37 35 33 32 31 30 28 28 28 27 27 27 27 27 28 27 25 23 20 17 14 12 11 9 8 6 4 3 5 3 6 10 12 12 12 12 13 15 15 13 12 9 6 5 8 7 8
39 37 35 34 32 30 29 28 28 27 26 26 26 26 26 26 23 20 18 16 14 12 10 9 6 5 3 4 5 6 7 8 11 12 12 13 13 15 13 12 11 8 7 7 8 8 7
41 39 37 35 33 31 30 28 28 27 26 25 25 25 25 24 21 19 17 15 13 11 9 8 7 5 6 7 5 8 6 7 11 12 12 13 15 14 13 11 11 9 6 6 5 7 6
43 41 38 36 34 32 30 29 28 26 25 25 24 24 24 22 18 16 14 13 12 10 9 8 7 6 8 7 8 8 7 9 11 11 11 12 14 13 10 11 8 7 5 5 5 6 6
46 43 40 37 35 33 31 29 27 26 25 24 23 23 21 18 16 13 11 9 11 10 9 8 7 7 7 8 10 8 10 10 11 10 11 10 15 13 11 11 8 3 5 6 7 4 7
48 45 43 40 36 34 31 29 27 25 24 23 22 21 18 16 13 10 8 8 10 9 9 9 7 6 8 9 11 11 11 11 10 10 10 10 10 11 11 10 9 7 7 6 7 6 7
49 48 45 42 38 35 32 29 27 25 23 21 20 18 16 13 11 8 8 9 9 9 11 10 7 6 7 8 13 12 11 12 9 9 8 9 10 10 9 8 7 7 8 7 6 8 6
52 51 47 44 40 37 33 30 27 25 22 20 18 16 13 11 10 9 10 9 9 8 9 11 8 8 9 9 13 13 12 12 10 9 9 9 10 8 7 6 6 6 9 6 7 8 6
54 51 49 46 42 38 35 31 27 24 21 19 16 14 11 10 10 10 10 9 8 8 10 8 8 7 8 10 12 14 15 13 12 10 10 10 8 8 7 6 7 7 7 6 7 9 7
56 52 51 47 43 39 36 32 28 25 21 18 15 13 12 13 11 10 10 7 9 11 8 8 8 7 8 10 10 14 14 14 12 13 11 8 7 7 7 7 7 7 6 8 8 7 7
56 54 51 49 45 41 38 33 29 26 21 18 16 15 16 16 11 11 9 8 10 11 7 10 10 8 8 10 11 11 13 13 15 13 11 9 8 7 6 6 7 7 8 7 7 6 7
56 55 52 51 47 43 39 35 31 27 23 20 18 18 19 16 12 11 9 11 11 8 6 9 11 10 9 7 9 9 10 11 14 11 9 9 7 6 8 6 6 9 6 5 6 7 8
58 57 54 53 50 45 42 38 33 29 24 22 21 21 22 17 14 11 13 13 9 10 8 10 12 11 10 8 9 9 10 10 11 11 8 7 8 8 8 8 7 6 7 6 7 8 9
60 59 56 53 52 48 44 40 35 31 27 25 24 24 23 20 16 13 14 13 12 10 11 10 12 11 10 10 9 8 9 9 7 8 9 10 9 8 8 8 9 8 9 8 8 7 7
61 62 59 55 55 50 46 42 37 33 29 27 26 25 22 20 21 18 16 13 13 11 11 13 11 11 8 8 9 9 8 8 8 8 8 8 8 7 7 8 9 8 8 7 5 5 6
59 61 59 59 58 53 49 44 40 35 32 31 27 25 23 21 23 20 16 16 11 11 10 12 11 10 9 9 7 8 9 8 8 8 8 9 7 7 6 7 5 7 7 5 4 4 5
57 60 58 59 59 55 51 47 42 38 36 34 28 25 26 25 24 19 18 17 12 11 12 12 11 8 8 8 8 8 10 8 9 8 9 8 7 7 7 7 8 7 6 3 3 3 3
56 60 54 58 59 56 53 49 44 41 39 36 30 25 28 28 22 21 20 18 13 10 11 11 9 6 8 8 8 9 11 8 8 9 10 10 8 7 7 7 7 6 6 5 4 5 4
56 59 56 58 58 57 54 50 46 44 42 35 30 26 29 29 24 22 20 19 15 11 10 9 7 6 6 8 7 8 9 9 9 8 11 12 8 7 6 7 8 8 7 5 4 5 7
56 57 58 58 58 57 54 51 47 45 44 35 31 27 28 27 25 25 23 20 15 12 10 8 6 5 6 6 7 9 9 8 8 9 8 10 10 10 11 8 8 9 10 9 7 7 8
51 56 54 59 58 56 53 50 47 45 45 35 31 30 31 29 26 25 24 21 18 12 11 8 5 5 6 5 7 8 9 8 8 10 9 10 10 10 9 9 9 9 10 11 11 10 11
49 51 56 58 56 53 51 49 47 46 46 36 32 31 29 24 29 26 25 23 20 14 11 8 6 5 5 6 8 10 9 10 10 10 10 10 10 10 12 10 10 12 13 13 14 14 18
52 53 55 55 53 51 49 48 46 46 45 36 32 30 30 27 26 28 27 24 20 16 11 8 7 5 4 4 5 5 6 6 8 10 10 9 10 10 12 11 12 14 16 16 16 16 17
51 55 53 51 49 47 46 45 45 46 45 34 33 32 27 27 27 28 27 24 21 18 13 9 6 5 5 7 5 3 3 4 4 5 8 9 9 10 12 12 14 16 15 16 19 20 22
53 51 49 47 45 44 43 43 43 44 44 33 33 31 29 25 26 25 27 25 21 16 13 11 8 7 9 4 2 2 4 5 6 6 7 9 10 10 12 14 18 18 17 18 19 22 22
49 47 45 42 41 40 40 40 41 43 43 33 33 30 28 26 27 27 26 27 24 19 14 11 9 10 7 5 4 4 5 6 6 6 8 9 9 11 12 13 15 16 16 17 19 23 22
46 43 40 38 37 36 36 37 40 42 42 34 31 30 26 24 23 27 27 26 23 20 17 14 14 11 9 7 7 7 8 7 8 8 8 9 10 11 12 15 19 19 18 18 17 21 21
41 39 36 34 32 32 33 35 38 41 41 34 31 28 25 23 24 25 26 25 22 21 19 18 14 13 11 9 9 10 9 10 9 10 11 11 11 13 12 15 19 16 16 17 20 23 25
38 35 32 30 29 29 30 33 36 38 40 34 29 26 23 22 23 24 24 22 22 22 20 19 16 14 14 11 12 11 12 12 12 13 13 14 15 15 16 17 19 21 23 24 25 26 26
Wind_Direction
263 264 265 266 268 270 270 275 278 282 287 291 295 299 303 303 303 298 293 287 279 269 267 268 277 274 266 239 210 165 152 164 168 173 174 170 168 169 171 174 171 177 181 176 179 160 155
260 261 262 263 266 268 267 272 276 280 284 290 294 298 302 302 300 294 288 281 270 260 255 254 255 240 226 201 178 162 150 157 173 172 171 166 165 170 167 172 176 161 150 148 165 170 167
258 258 259 261 262 264 264 269 273 277 282 287 292 297 301 300 297 291 285 274 256 244 241 241 228 224 219 210 183 170 173 161 166 165 164 174 172 167 165 166 172 160 143 135 141 160 157
254 255 256 257 259 261 262 265 270 273 279 285 289 295 298 297 293 289 283 264 236 231 228 221 218 227 219 206 193 187 177 160 158 163 166 169 175 175 174 171 170 171 173 176 183 178 176
251 252 253 254 255 257 259 262 265 270 275 282 286 293 295 292 288 280 279 245 221 217 215 208 212 217 226 205 188 183 170 160 158 158 168 160 167 177 177 173 172 181 179 180 174 177 182
250 250 249 250 252 253 255 257 260 265 271 278 283 289 290 284 278 267 255 219 205 204 206 201 215 218 216 196 194 180 176 172 162 160 152 161 165 175 184 184 189 189 179 175 164 166 135
249 247 247 246 248 249 251 252 255 260 267 272 278 282 280 274 257 245 211 196 197 210 205 200 213 221 206 203 193 186 183 178 172 161 157 174 167 173 168 184 191 194 187 169 170 170 156
247 243 244 243 244 244 245 246 249 255 261 265 272 272 268 254 230 211 197 206 210 203 204 216 225 227 214 198 194 193 182 180 171 165 168 150 156 175 173 179 175 178 169 180 191 187 178
245 243 240 239 239 239 240 240 243 248 252 257 262 257 248 222 200 197 202 205 202 208 195 208 202 199 190 183 187 190 187 182 177 176 178 165 175 183 186 184 171 168 168 186 186 173 172
241 239 237 235 235 235 234 233 236 240 242 247 247 237 220 194 194 195 201 205 207 190 184 203 188 176 173 169 173 186 185 187 184 181 177 175 188 183 181 188 196 182 192 171 156 195 203
238 236 233 232 230 230 229 228 230 231 233 235 230 218 199 191 193 194 195 192 177 175 171 193 180 170 165 166 167 177 188 190 187 190 197 200 196 200 188 206 200 198 195 189 210 211 223
235 232 230 227 225 225 224 223 222 224 225 224 217 205 193 196 195 196 190 174 169 163 194 176 176 169 161 165 165 173 171 176 182 184 191 199 208 203 201 202 205 192 204 225 233 241 251
231 227 225 223 220 219 218 217 216 217 217 214 207 198 190 190 188 184 179 173 165 165 168 171 168 163 157 158 158 160 164 166 179 185 200 211 211 214 211 210 219 223 212 232 242 249 254
228 224 221 219 216 215 213 211 211 211 209 207 201 194 195 195 190 182 176 170 171 179 178 167 167 164 162 169 169 169 169 175 180 183 192 202 219 227 238 224 220 227 225 226 236 242 256
225 220 218 216 212 210 208 206 206 206 204 200 193 193 196 195 196 191 177 174 182 182 175 169 164 165 174 176 176 180 185 189 200 209 201 206 220 226 226 222 224 225 229 232 226 265 263
220 214 213 212 208 206 204 202 201 200 199 193 192 192 194 190 183 181 179 186 186 182 177 173 171 178 179 184 184 190 198 209 207 212 211 209 204 217 214 209 212 220 197 214 239 225 256
214 208 207 205 203 201 200 198 197 196 194 191 191 193 190 185 183 184 185 188 188 189 183 180 180 184 193 194 202 206 206 217 216 215 211 207 206 216 207 212 202 203 208 201 198 239 227
206 201 200 198 197 196 195 194 194 192 191 190 191 192 188 185 185 189 186 186 183 184 179 187 186 191 200 209 209 212 211 219 215 218 210 210 200 201 207 210 213 209 210 210 221 237 261
198 195 197 193 193 192 191 191 191 190 189 187 190 190 189 188 188 189 188 186 185 182 181 183 195 211 212 205 209 213 206 210 214 208 201 204 210 203 216 224 222 222 219 222 236 259 247
192 192 192 190 190 189 189 189 189 189 188 189 189 189 191 191 192 187 186 186 184 187 191 185 190 204 203 214 219 204 205 216 214 210 206 204 209 210 213 221 220 224 227 232 249 261 259
183 186 187 185 185 186 187 187 187 188 187 189 192 192 191 191 192 188 189 189 187 192 192 194 197 211 200 202 205 207 212 215 219 213 209 210 213 220 226 232 235 238 235 237 250 261 262
179 178 178 180 181 183 185 186 186 187 187 192 191 190 189 189 190 189 191 192 189 195 195 197 192 198 202 198 208 211 209 224 219 211 211 222 220 226 227 241 248 251 252 253 263 271 273
174 175 175 176 179 181 183 185 186 186 187 191 191 189 189 194 191 191 195 193 191 191 196 196 196 196 205 220 221 219 220 205 205 206 215 227 222 229 243 252 257 266 253 254 265 271 273
168 168 170 174 177 180 182 184 186 187 189 191 191 189 188 193 194 195 194 195 195 199 196 200 199 199 205 158 147 146 141 161 191 223 231 230 238 246 249 256 261 266 265 270 267 274 271
162 165 168 171 175 178 181 183 186 187 188 192 191 192 193 193 196 194 194 194 192 197 201 204 215 213 177 196 207 236 263 253 251 251 254 249 243 256 255 260 275 274 270 269 272 282 276
159 162 165 169 172 176 180 183 185 186 187 189 189 190 193 192 202 196 195 199 198 199 204 207 208 190 215 231 242 237 245 246 254 254 255 258 260 260 264 269 271 277 279 278 283 286 288
155 158 162 166 170 174 179 182 184 185 186 187 187 189 191 195 199 196 199 199 201 204 208 208 207 224 233 243 251 252 256 261 257 252 260 271 274 264 270 274 283 281 286 285 287 289 293
152 155 159 162 167 172 176 180 182 183 185 187 186 189 193 196 198 199 197 199 203 208 211 214 218 235 240 250 253 256 260 259 268 266 263 263 265 272 279 283 287 284 287 284 289 292 292
148 151 154 158 162 167 172 176 179 181 183 185 186 188 191 193 196 195 195 201 210 212 214 218 226 232 238 250 257 260 263 269 271 272 274 274 270 278 271 281 285 285 288 290 291 291 292